This is the latest recevied weather packets stored in our database for station/object K9RCP-20. If no packets are shown the sender has not sent any weather packets the latest 10 day(s).
| Time | Temp. | Humidity | Pressure | Rain* | Wind** | Luminosity | Snow |
|---|---|---|---|---|---|---|---|
| 1778128449 | 15.56° C | 77% | 1018.4 hPa | 0 mm | - | 0 W/m² | - |
| 1778128145 | 15.56° C | 77% | 1018.4 hPa | 0 mm | - | 0 W/m² | - |
| 1778127842 | 15° C | 78% | 1018.3 hPa | 0 mm | - | 0 W/m² | - |
| 1778127533 | 15° C | 77% | 1018.4 hPa | 0 mm | - | 0 W/m² | - |
| 1778127230 | 14.44° C | 78% | 1018.3 hPa | 0 mm | - | 0 W/m² | - |
| 1778126927 | 15° C | 77% | 1018 hPa | 0 mm | - | 0 W/m² | - |
| 1778126623 | 15° C | 78% | 1018 hPa | 0 mm | - | 0 W/m² | - |
| 1778126319 | 15° C | 78% | 1017.8 hPa | 0 mm | - | 0 W/m² | - |
| 1778126015 | 15° C | 77% | 1018 hPa | 0 mm | - | 0 W/m² | - |
| 1778125712 | 15° C | 77% | 1017.9 hPa | 0 mm | - | 0 W/m² | - |
| 1778125409 | 15° C | 77% | 1017.7 hPa | 0 mm | - | 0 W/m² | - |
| 1778125107 | 15° C | 76% | 1017.5 hPa | 0 mm | - | 1 W/m² | - |
| 1778124805 | 15° C | 75% | 1017.7 hPa | 0 mm | - | 1 W/m² | - |
| 1778124501 | 15.56° C | 75% | 1017.6 hPa | 0 mm | - | 2 W/m² | - |
| 1778124197 | 15.56° C | 74% | 1017.4 hPa | 0 mm | - | 4 W/m² | - |
| 1778123894 | 15.56° C | 74% | 1017.5 hPa | 0 mm | - | 6 W/m² | - |
| 1778123591 | 16.11° C | 73% | 1017.3 hPa | 0 mm | - | 9 W/m² | - |
| 1778123287 | 15.56° C | 73% | 1017.4 hPa | 0 mm | - | 13 W/m² | - |
| 1778122985 | 16.11° C | 73% | 1017.3 hPa | 0 mm | - | 17 W/m² | - |
| 1778122682 | 16.11° C | 71% | 1017.2 hPa | 0 mm | - | 21 W/m² | - |
| 1778122379 | 16.11° C | 72% | 1017 hPa | 0 mm | - | 25 W/m² | - |
| 1778122077 | 16.67° C | 71% | 1017.1 hPa | 0 mm | - | 26 W/m² | - |
| 1778121774 | 16.67° C | 70% | 1017 hPa | 0 mm | - | 28 W/m² | - |
| 1778121470 | 16.67° C | 71% | 1016.9 hPa | 0 mm | - | 30 W/m² | - |
| 1778121167 | 16.67° C | 72% | 1016.9 hPa | 0 mm | - | 34 W/m² | - |
* Rain latest hour (hover to see other rain measurements)
** Current wind speed in m/s (hover to see current wind gust speed)